Regional Weather Roundup
Issued by NWS

Home | Current Version | Previous Version | Graphics & Text | Print | Product List | Glossary Off
Versions: 1 2 3 4 5 6 7 8 9 10 11 12 13 14 15 16 17 18 19 20 21 22 23 24 25 26 27 28 29 30 31 32 33 34 35 36 37 38 39 40 41 42 43 44 45 46 47 48 49 50

000
ASUS43 KDMX 021507
RWRIA

WEATHER ROUNDUP FOR IOWA
NATIONAL WEATHER SERVICE DES MOINES IA
1000 AM CDT WED SEP 02 2015

NOTE: "FAIR" INDICATES FEW OR NO CLOUDS BELOW 12,000 FEET WITH NO
SIGNIFICANT WEATHER AND/OR OBSTRUCTIONS TO VISIBILITY.

* - THESE STATIONS ARE NOT NWS STATIONS...THUS NOT UNDER NWS
QUALITY CONTROL.  THEY ALSO DO NOT REPORT WEATHER SUCH
AS PRECIPITATION OR FOG.

IAZ001>003-012>014-020>022-031>034-043>046-021600-
   NORTHWEST IOWA

CITY           SKY/WX    TMP DP  RH WIND       PRES   REMARKS
CARROLL *      SUNNY     77  70  78 S20       29.94S
CHEROKEE *     SUNNY     77  72  83 S13       29.91S
DENISON *      SUNNY     77  70  78 S20G26    29.91S
LE MARS *      SUNNY     77  72  83 S13G18    29.89S
ORANGE CITY *  SUNNY     75  72  88 S10       29.89S
SHELDON *      SUNNY     75  70  83 S12G20    29.89S
SIOUX CITY     SUNNY     77  69  76 S15G21    29.89R
SPENCER        SUNNY     77  68  73 S13       29.91S
STORM LAKE *   SUNNY     75  70  83 S16G26    29.93S
$$

IAZ055>058-069>071-079>083-090>094-021600-
   SOUTHWEST IOWA

CITY           SKY/WX    TMP DP  RH WIND       PRES   REMARKS
ATLANTIC *     SUNNY     77  70  78 S13G25    29.96S
AUDUBON *      SUNNY     77  70  78 S15G26    29.97S
CLARINDA *     PTSUNNY   73  70  88 S10G20    30.01S
COUNCIL BLFS * SUNNY     77  70  78 S15G23    29.95S
CRESTON *      CLOUDY    73  70  88 S17G24    30.02S
LAMONI         LGT RAIN  70  69  97 S13       30.06F FOG
RED OAK *      SUNNY     77  70  78 S18G28    29.97R
SHENANDOAH *   SUNNY     77  70  78 SE18G26   29.97S
$$

IAZ047>049-059>061-072>074-084-021600-
   CENTRAL IOWA

CITY           SKY/WX    TMP DP  RH WIND       PRES   REMARKS
AMES           MOSUNNY   76  69  79 S20G29    29.97S
ANKENY *       SUNNY     77  70  78 S13G24    29.97S
CHARITON *     CLOUDY    70  70 100 S16       30.03F FOG
DES MOINES     MOSUNNY   76  69  79 S17G25    29.97F
GRINNELL*      CLOUDY    72  68  88 S13       30.01S
KNOXVILLE *    MOSUNNY   72  70  94 S14G21    29.99F
MARSHALLTOWN   MOSUNNY   74  69  85 S12       29.97S
PELLA *        CLOUDY    72  72 100 SW14G20   30.01S FOG
PERRY *          N/A     77  70  78 S15G22    29.96F
$$

IAZ004>006-015-016-023>025-035-036-021600-
   NORTH CENTRAL IOWA

CITY           SKY/WX    TMP DP  RH WIND       PRES   REMARKS
ALGONA *       SUNNY     77  68  73 S20G26    29.93F
CLARION *      MOSUNNY   75  68  78 S17G26    29.95S
ESTHERVILLE    SUNNY     74  68  81 S15G24    29.91F
FORT DODGE *   SUNNY     75  66  73 S13G25    29.95S
MASON CITY     SUNNY     76  67  73 S16G22    29.95F
FOREST CITY *  SUNNY     77  64  65 S15G21    29.93F
IOWA FALLS *     N/A     77  68  73 S16G24    29.97S
$$

IAZ007>011-017>019-026>030-037>042-050>054-066-021600-
   NORTHEAST IOWA

CITY           SKY/WX    TMP DP  RH WIND       PRES   REMARKS
CEDAR RAPIDS   CLOUDY    73  70  90 SW7       30.02R
CHARLES CITY * SUNNY     75  72  88 S13G18    29.97F
CLINTON *      PTSUNNY   79  72  78 SW8       30.05F HX  82
DECORAH *      SUNNY     73  70  88 S9        29.99S
DUBUQUE        PTSUNNY   77  70  79 SW10      30.03S
MONTICELLO *   SUNNY     77  70  78 VRB5      30.02S
OELWEIN *      SUNNY     72  70  94 S9        30.01S
WATERLOO       PTSUNNY   74  68  81 S12       29.97F
$$

IAZ064-065-067-068-078-021600-
   EAST CENTRAL IOWA

CITY           SKY/WX    TMP DP  RH WIND       PRES   REMARKS
DAVENPORT      CLOUDY    79  70  74 SW8       30.04F HX  82
IOWA CITY      CLOUDY    74  69  85 SW7       30.02F
MT. PLEASANT * CLOUDY    77  70  78 S7        30.04F
MUSCATINE *    SUNNY     77  70  78 S10       30.03F
QUAD CITIES    PTSUNNY   81  70  69 SW9       30.04F HX  84
$$

IAZ062-063-075>077-085>089-095>099-021600-
   SOUTHEAST IOWA

CITY           SKY/WX    TMP DP  RH WIND       PRES   REMARKS
BURLINGTON     CLOUDY    78  72  81 S8        30.06F HX  80
FAIRFIELD *    SUNNY     72  68  88 S8G14     30.02F
FORT MADISON * SUNNY     75  72  88 S8        30.07F
KEOKUK *       SUNNY     77  72  83 SW8       30.06F
OSKALOOSA *      N/A     72  70  94 SW10      30.02R FOG
CENTERVILLE *  LGT RAIN  70  68  94 SW10      30.08F
OTTUMWA        CLOUDY    71  70  96 SW10      30.00F FOG
WASHINGTON *     N/A    N/A N/A N/A MISG        N/A
$$

ABBREVIATIONS USED IN REMARKS
   TC - TEMPERATURES IN CELSIUS
  WCI - WIND CHILL INDEX
   HX - HEAT INDEX
  VSB - VISIBILITY
$$




USA.gov is the U.S. government's official web portal to all federal, state and local government web resources and services.